Regional Weather Roundup
Issued by NWS Charleston, WV

Home | Current Version | Previous Version | Graphics & Text | Print | Product List | Glossary On
Versions: 1 2 3 4 5 6 7 8 9 10 11 12 13 14 15 16 17 18 19 20 21 22 23 24 25 26 27 28 29 30 31 32 33 34 35 36 37 38 39 40 41 42 43 44 45 46 47 48 49 50
373
ASUS41 KRLX 272210
RWRRLX
West Virginia Regional Weather Roundup
National Weather Service Charleston WV
600 PM EDT TUE JUN 27 2017

Note: "fair" indicates few or no clouds below 12,000 feet with no
significant weather and/or obstructions to visibility.

WVZ003-272300-
Northern Panhandle of West Virginia

CITY           SKY/WX    TMP DP  RH WIND       PRES   REMARKS
WHEELING       MOSUNNY   69  45  41 NW10      30.08S
$$

WVZ009-272300-
Northwest West Virginia

CITY           SKY/WX    TMP DP  RH WIND       PRES   REMARKS
PARKERSBURG    MOSUNNY   72  49  44 W10       30.11F
$$

WVZ006-272300-
Western West Virginia

CITY           SKY/WX    TMP DP  RH WIND       PRES   REMARKS
HUNTINGTON     PTSUNNY   71  47  42 NW5       30.09F
$$

WVZ015-272300-
West Central West Virginia

CITY           SKY/WX    TMP DP  RH WIND       PRES   REMARKS
CHARLESTON     MOSUNNY   72  47  40 NW8       30.09F
$$

WVZ022-031-272300-
North Central West Virginia

CITY           SKY/WX    TMP DP  RH WIND       PRES   REMARKS
CLARKSBURG     MOSUNNY   70  45  40 W10       30.09F
MORGANTOWN     MOSUNNY   69  45  41 VRB6      30.10S
$$

WVZ025-035-042-045-272300-
Southern West Virginia

CITY           SKY/WX    TMP DP  RH WIND       PRES   REMARKS
BECKLEY        MOSUNNY   69  44  40 N9        30.13F
LOGAN            N/A     72  48  43 CALM      30.11F
BLUEFIELD      MOSUNNY   67  44  43 W8        30.14F
LEWISBURG      MOSUNNY   68  42  37 NW7G17    30.12S
$$

WVZ047-272300-
Northern Mountains of West Virginia

CITY           SKY/WX    TMP DP  RH WIND       PRES   REMARKS
ELKINS         SUNNY     66  45  46 W7        30.11S
$$

WVZ052-272300-
Eastern Panhandle of West Virginia

CITY           SKY/WX    TMP DP  RH WIND       PRES   REMARKS
MARTINSBURG    SUNNY     76  45  33 NW17G26   30.01R
PETERSBURG     PTSUNNY   74  47  38 NW9       30.06S
$$




USA.gov is the U.S. government's official web portal to all federal, state and local government web resources and services.